Rotterdam, Netherlands

2:03 AM CEST on July 23, 2017 (GMT +0200)
Rotterdam

Weather History for EHRD - July, 2012

Change the Weather History Date:

Tuesday, July 10, 2012

  Actual Average Record
Temperature  
Mean Temperature 62 °F -  
Max Temperature 67 °F 69 °F 86 °F (2010)
Min Temperature 57 °F 54 °F 46 °F (2015)
Degree Days  
Heating Degree Days 3    
Growing Degree Days 12 (Base 50)    
Moisture  
Dew Point 55 °F    
Average Humidity 78    
Maximum Humidity 94    
Minimum Humidity 62    
Precipitation  
Precipitation 0.01 in - - ()
Sea Level Pressure  
Sea Level Pressure 29.86 in    
Wind  
Wind Speed 10 mph ()    
Max Wind Speed 15 mph    
Max Gust Speed -    
Visibility 7.7 miles    
Events Rain    
Averages and records for this station are not official NWS values.
T = Trace of Precipitation, MM = Missing Value Source: Averaged Metar Reports

Daily Weather History Graph

Daily Weather History Graph

Search for Another Location

Airport or City:

Trip Planner

Search our weather history database for the weather conditions in past years. The results will help you decide how hot, cold, wet, or windy it might be!

Date:

Astronomy

Jul. 10, 2012 Rise Set
Actual Time 5:35 AM CEST 9:59 PM CEST
Civil Twilight 4:48 AM CEST 10:45 PM CEST
Nautical Twilight 3:38 AM CEST 11:55 PM CEST
Astronomical Twilight 2:20 AM CEST 1:15 AM CEST
Moon 12:10 AM CEST (7/10) 1:49 PM CEST (7/10)
Length of Visible Light 17h 57m
Length of Day
16h 24m
Waning Gibbous, 57% of the Moon is Illuminated
Jul 10
Waning Gibbous
Jul 11
Last Quarter
Jul 19
New
Jul 26
First Quarter
Aug 2
Full

Hourly Weather History & Observations

Time (CEST) Temp. Dew Point Humidity Pressure Visibility Wind Dir Wind Speed Gust Speed Precip Events Conditions
12:25 AM 60.8 °F 57.2 °F 88% 29.89 in 6.2 mi WSW 9.2 mph - N/A   Unknown
12:55 AM 60.8 °F 57.2 °F 88% 29.89 in 6.2 mi WSW 11.5 mph - N/A   Unknown
1:25 AM 60.8 °F 57.2 °F 88% 29.89 in 6.2 mi WSW 11.5 mph - N/A   Unknown
1:55 AM 59.0 °F 55.4 °F 88% 29.89 in 6.2 mi WSW 9.2 mph - N/A   Unknown
2:00 AM 58 °F 55 °F 88% 29.90 in 16 mi WSW 6.7 mph - -   Scattered Clouds
2:25 AM 59.0 °F 55.4 °F 88% 29.89 in 6.2 mi SW 10.4 mph - N/A   Unknown
2:55 AM 59.0 °F 55.4 °F 88% 29.89 in 6.2 mi SW 9.2 mph - N/A   Unknown
3:25 AM 59.0 °F 55.4 °F 88% 29.89 in 6.2 mi SW 8.1 mph - N/A   Unknown
3:55 AM 60.8 °F 55.4 °F 82% 29.86 in 6.2 mi SW 10.4 mph - N/A   Partly Cloudy
4:25 AM 59.0 °F 55.4 °F 88% 29.86 in 6.2 mi SW 10.4 mph - N/A   Unknown
4:55 AM 59.0 °F 55.4 °F 88% 29.86 in 6.2 mi SW 11.5 mph - N/A   Unknown
5:00 AM 59 °F 56 °F 86% 29.88 in 9 mi SW 11.2 mph - -   Scattered Clouds
5:25 AM 59.0 °F 55.4 °F 88% 29.86 in 6.2 mi SW 10.4 mph - N/A   Unknown
5:55 AM 59.0 °F 55.4 °F 88% 29.86 in 6.2 mi SW 10.4 mph - N/A   Partly Cloudy
6:25 AM 59.0 °F 55.4 °F 88% 29.86 in 6.2 mi SW 10.4 mph - N/A   Partly Cloudy
6:55 AM 59.0 °F 57.2 °F 94% 29.86 in 6.2 mi SSW 8.1 mph - N/A   Mostly Cloudy
7:25 AM 59.0 °F 55.4 °F 88% 29.86 in 6.2 mi SSW 10.4 mph - N/A   Scattered Clouds
7:55 AM 60.8 °F 55.4 °F 82% 29.86 in 6.2 mi SW 13.8 mph - N/A   Partly Cloudy
8:00 AM 60 °F 55 °F 77% 29.88 in 16 mi SW 13.4 mph - -   Scattered Clouds
8:25 AM 60.8 °F 55.4 °F 82% 29.86 in 6.2 mi SW 12.7 mph - N/A   Partly Cloudy
8:55 AM 62.6 °F 55.4 °F 77% 29.86 in 6.2 mi SW 12.7 mph - N/A   Partly Cloudy
9:25 AM 62.6 °F 55.4 °F 77% 29.86 in 6.2 mi SW 15.0 mph - N/A   Mostly Cloudy
9:55 AM 64.4 °F 55.4 °F 73% 29.86 in 6.2 mi SSW 13.8 mph - N/A   Overcast
10:25 AM 64.4 °F 55.4 °F 73% 29.86 in 6.2 mi SW 11.5 mph - N/A   Mostly Cloudy
10:55 AM 66.2 °F 57.2 °F 73% 29.86 in 6.2 mi SW 13.8 mph - N/A   Mostly Cloudy
11:00 AM 66 °F 56 °F 62% 29.88 in 19 mi SW 13.4 mph - -   Partly Cloudy
11:25 AM 64.4 °F 55.4 °F 73% 29.86 in 6.2 mi SW 12.7 mph - N/A   Mostly Cloudy
11:55 AM 66.2 °F 53.6 °F 64% 29.86 in 6.2 mi SW 15.0 mph - N/A   Mostly Cloudy
12:25 PM 66.2 °F 55.4 °F 68% 29.86 in 6.2 mi SW 13.8 mph - N/A   Mostly Cloudy
12:55 PM 66.2 °F 53.6 °F 64% 29.86 in 6.2 mi SW 15.0 mph - N/A   Mostly Cloudy
1:25 PM 64.4 °F 55.4 °F 73% 29.86 in 6.2 mi SW 13.8 mph - N/A   Mostly Cloudy
1:55 PM 64.4 °F 55.4 °F 73% 29.86 in 6.2 mi SW 10.4 mph - N/A   Mostly Cloudy
2:00 PM 64 °F 56 °F 69% 29.88 in 14 mi SW 11.2 mph - - Rain Light Rain Showers
2:25 PM 64.4 °F 57.2 °F 77% 29.86 in 6.2 mi SSW 12.7 mph - N/A   Overcast
2:55 PM 64.4 °F 55.4 °F 73% 29.86 in 6.2 mi SW 12.7 mph - N/A   Mostly Cloudy
3:25 PM 64.4 °F 55.4 °F 73% 29.86 in 6.2 mi SW 12.7 mph - N/A   Mostly Cloudy
3:55 PM 62.6 °F 57.2 °F 82% 29.86 in 6.2 mi WSW 8.1 mph - N/A   Mostly Cloudy
4:25 PM 64.4 °F 55.4 °F 73% 29.86 in 6.2 mi SW 10.4 mph - N/A   Mostly Cloudy
4:55 PM 66.2 °F 55.4 °F 68% 29.83 in 6.2 mi SW 11.5 mph - N/A   Mostly Cloudy
5:00 PM 62 °F 55 °F 73% 29.87 in 19 mi WSW 13.4 mph - - Rain Light Rain Showers
5:25 PM 60.8 °F 57.2 °F 88% 29.86 in 6.2 mi WSW 9.2 mph - N/A   Partly Cloudy
5:55 PM 62.6 °F 57.2 °F 82% 29.86 in 6.2 mi WSW 10.4 mph - N/A   Unknown
6:25 PM 62.6 °F 55.4 °F 77% 29.86 in 6.2 mi SW 12.7 mph - N/A   Partly Cloudy
6:55 PM 62.6 °F 53.6 °F 72% 29.86 in 6.2 mi WSW 13.8 mph - N/A   Unknown
7:25 PM 62.6 °F 53.6 °F 72% 29.86 in 6.2 mi West 15.0 mph - N/A   Overcast
7:55 PM 62.6 °F 53.6 °F 72% 29.86 in 6.2 mi WSW 11.5 mph - N/A   Scattered Clouds
8:00 PM 61 °F 54 °F 70% 29.86 in 19 mi WSW 13.4 mph - -   Partly Cloudy
8:25 PM 60.8 °F 53.6 °F 77% 29.83 in 6.2 mi WSW 10.4 mph - N/A   Unknown
8:55 PM 60.8 °F 53.6 °F 77% 29.83 in 6.2 mi WSW 10.4 mph - N/A   Overcast
9:25 PM 62.6 °F 53.6 °F 72% 29.83 in 6.2 mi WSW 12.7 mph - N/A   Mostly Cloudy
9:55 PM 60.8 °F 51.8 °F 72% 29.83 in 6.2 mi WSW 11.5 mph - N/A   Mostly Cloudy
10:25 PM 60.8 °F 51.8 °F 72% 29.86 in 6.2 mi WSW 12.7 mph - N/A   Unknown
10:55 PM 60.8 °F 53.6 °F 77% 29.86 in 6.2 mi SW 9.2 mph - N/A   Unknown
11:00 PM 61 °F 53 °F 68% 29.86 in 19 mi SW 11.2 mph - -   Overcast
11:25 PM 60.8 °F 53.6 °F 77% 29.83 in 6.2 mi SSW 11.5 mph - N/A   Mostly Cloudy
11:55 PM 60.8 °F 51.8 °F 72% 29.83 in 6.2 mi SSW 13.8 mph - N/A   Partly Cloudy